Date String (YYYY-MM-DD hh:mm:ss) UTC,Instrument flags,absolute air pressure of the measurement (hPa),sample flow rate (lpm),inlet stack bypass flow (lpm),air temperature of the measurement (°C),ambient temperature measured by the external sensor (°C),aerosol sample conditioner tube jacket temperature (°C),OPC LED temperature (°C),internal box temperature (°C),relative humidity of the measurement (%),span deviation,mass concentration of particles derived from Lorenz-Mie calculation of OPC scattering (μg/m³),mass concentration of particles derived from Lorenz-Mie calculation of OPC scattering (μg/m³),mass concentration of particles derived from Lorenz-Mie calculation of OPC scattering (μg/m³)
DateTimeUTC,F1_M11,P_M11,Q1_M11,Q2_M11,T1_M11,T2_M11,T3_M11,T4_M11,T5_M11,U1_M11,ZSPAN_M11,X0_M11,X2_M11,X1_M11
2024-06-12 14:00:00,SystemResetWarning,0830.4,5.00,000.00,030.2,029.5,000.0,038.4,031.9,023.9,0000.0,0011.12,0004.54,0003.92
2024-06-12 14:01:00,SystemResetWarning,0830.4,5.00,000.00,030.2,029.6,000.0,038.5,032.0,022.9,0000.0,0012.30,0004.58,0003.94
2024-06-12 14:02:00,SystemResetWarning,0830.5,4.99,000.00,030.3,029.7,000.0,038.5,032.0,025.4,0000.0,0012.91,0004.61,0003.96
2024-06-12 14:03:00,SystemResetWarning,0830.4,5.00,000.00,030.3,029.8,000.0,038.5,032.1,025.1,0000.0,0014.22,0004.59,0003.98
2024-06-12 14:04:00,SystemResetWarning,0830.5,5.00,000.00,030.4,029.8,000.0,038.5,032.1,025.4,0000.0,0014.89,0004.61,0004.00
2024-06-12 14:05:00,SystemResetWarning,0830.4,4.99,000.00,030.4,029.7,000.0,038.6,032.0,023.8,0000.0,0016.00,0004.69,0004.01
2024-06-12 14:06:00,SystemResetWarning,0830.3,4.99,000.00,030.2,027.9,000.0,038.7,031.2,024.4,0000.0,0016.83,0004.73,0004.03
2024-06-12 14:07:00,SystemResetWarning,0830.3,5.00,000.00,029.8,026.8,000.0,038.7,030.6,023.5,0000.0,0017.42,0004.77,0004.04
2024-06-12 14:08:00,SystemResetWarning,0830.3,5.01,000.00,029.7,027.3,000.0,038.6,030.7,023.4,0000.0,0017.32,0004.78,0004.06
2024-06-12 14:09:00,SystemResetWarning,0830.3,4.99,000.00,029.7,027.6,000.0,038.5,030.9,023.4,0000.0,0016.51,0004.81,0004.08
2024-06-12 14:10:00,SystemResetWarning,0830.3,5.00,000.00,029.7,028.0,000.0,038.4,031.2,022.9,0000.0,0016.23,0004.84,0004.09
2024-06-12 14:11:00,SystemResetWarning,0830.3,5.00,000.00,029.8,028.3,000.0,038.3,031.3,022.4,0000.0,0016.20,0004.83,0004.09
2024-06-12 14:12:00,SystemResetWarning,0830.4,5.00,000.00,029.8,028.6,000.0,038.3,031.4,022.7,0000.0,0015.64,0004.80,0004.08
2024-06-12 14:13:00,SystemResetWarning,0830.3,5.00,000.00,029.9,028.8,000.0,038.3,031.5,022.5,0000.0,0016.61,0004.82,0004.08
2024-06-12 14:14:00,SystemResetWarning,0830.4,5.00,000.00,029.9,029.0,000.0,038.3,031.6,023.0,0000.0,0015.47,0004.87,0004.08
2024-06-12 14:15:00,SystemResetWarning,0830.4,5.00,000.00,030.0,029.2,000.0,038.3,031.7,021.6,0000.0,0015.17,0004.91,0004.09
2024-06-12 14:16:00,SystemResetWarning,0830.4,5.00,000.00,030.0,029.3,000.0,038.3,031.8,020.8,0000.0,0014.74,0004.86,0004.07
2024-06-12 14:17:00,SystemResetWarning,0830.5,5.00,000.00,030.1,029.4,000.0,038.3,031.8,020.9,0000.0,0014.28,0004.85,0004.07
2024-06-12 14:18:00,SystemResetWarning,0830.4,5.01,000.00,030.1,029.6,000.0,038.4,031.9,021.1,0000.0,0013.85,0004.85,0004.08
2024-06-12 14:19:00,SystemResetWarning,0830.4,5.01,000.00,030.2,029.6,000.0,038.4,032.0,023.3,0000.0,0014.16,0004.85,0004.08
2024-06-12 14:20:00,SystemResetWarning,0830.4,5.00,000.00,030.2,029.7,000.0,038.4,032.0,021.4,0000.0,0014.33,0004.88,0004.09
2024-06-12 14:21:00,SystemResetWarning,0830.4,4.99,000.00,030.3,029.6,000.0,038.5,031.9,021.0,0000.0,0015.12,0004.92,0004.10
2024-06-12 14:22:00,SystemResetWarning,0830.3,4.99,000.00,030.1,027.8,000.0,038.5,031.1,023.2,0000.0,0015.24,0004.94,0004.11
2024-06-12 14:23:00,SystemResetWarning,0830.3,5.01,000.00,029.7,026.6,000.0,038.5,030.4,024.0,0000.0,0014.95,0004.99,0004.13
2024-06-12 14:24:00,SystemResetWarning,0830.3,5.01,000.00,029.6,027.0,000.0,038.5,030.6,023.5,0000.0,0013.86,0005.03,0004.14
2024-06-12 14:25:00,SystemResetWarning,0830.4,4.99,000.00,029.6,027.4,000.0,038.3,030.8,023.6,0000.0,0014.29,0005.04,0004.15
2024-06-12 14:26:00,SystemResetWarning,0830.4,5.01,000.00,029.6,027.8,000.0,038.2,031.0,025.9,0000.0,0014.15,0005.01,0004.15
2024-06-12 14:27:00,SystemResetWarning,0830.4,5.00,000.00,029.6,028.2,000.0,038.2,031.2,025.4,0000.0,0014.27,0005.05,0004.17
2024-06-12 14:28:00,SystemResetWarning,0830.5,5.00,000.00,029.7,028.4,000.0,038.2,031.3,027.0,0000.0,0014.22,0005.03,0004.18
2024-06-12 14:29:00,SystemResetWarning,0830.4,5.00,000.00,029.7,028.7,000.0,038.1,031.4,027.1,0000.0,0014.81,0005.05,0004.21
2024-06-12 14:30:00,SystemResetWarning,0830.6,4.99,000.00,029.8,028.9,000.0,038.1,031.5,024.4,0000.0,0015.75,0005.08,0004.23
2024-06-12 14:31:00,SystemResetWarning,0830.5,4.99,000.00,029.9,029.1,000.0,038.2,031.6,025.2,0000.0,0016.39,0005.09,0004.24
2024-06-12 14:32:00,SystemResetWarning,0830.5,5.00,000.00,029.9,029.2,000.0,038.2,031.7,024.7,0000.0,0016.46,0005.06,0004.25
2024-06-12 14:33:00,SystemResetWarning,0830.5,5.00,000.00,030.0,029.3,000.0,038.2,031.8,025.5,0000.0,0016.38,0005.06,0004.25
2024-06-12 14:34:00,SystemResetWarning,0830.4,5.01,000.00,030.1,029.5,000.0,038.2,031.8,025.3,0000.0,0016.79,0005.05,0004.25
2024-06-12 14:35:00,SystemResetWarning,0830.6,5.00,000.00,030.1,029.6,000.0,038.2,031.9,025.8,0000.0,0018.48,0005.05,0004.25
2024-06-12 14:36:00,SystemResetWarning,0830.4,5.00,000.00,030.1,029.3,000.0,038.3,031.7,025.9,0000.0,0018.71,0005.04,0004.25
2024-06-12 14:37:00,SystemResetWarning,0830.4,4.98,000.00,029.9,027.4,000.0,038.4,030.8,026.9,0000.0,0019.32,0005.08,0004.25
2024-06-12 14:38:00,SystemResetWarning,0830.5,5.03,000.00,029.5,026.3,000.0,038.4,030.2,027.5,0000.0,0019.65,0005.10,0004.25
2024-06-12 14:39:00,SystemResetWarning,0830.6,4.99,000.00,029.4,026.8,000.0,038.3,030.4,027.3,0000.0,0020.41,0005.14,0004.25
2024-06-12 14:40:00,SystemResetWarning,0830.7,5.00,000.00,029.4,027.2,000.0,038.2,030.7,026.4,0000.0,0020.26,0005.17,0004.26
2024-06-12 14:41:00,SystemResetWarning,0830.4,5.00,000.00,029.4,027.6,000.0,038.1,030.9,027.7,0000.0,0019.28,0005.14,0004.24
2024-06-12 14:42:00,SystemResetWarning,0830.6,4.99,000.00,029.5,028.0,000.0,038.0,031.0,027.9,0000.0,0019.12,0005.16,0004.23
2024-06-12 14:43:00,SystemResetWarning,0830.4,5.01,000.00,029.5,028.3,000.0,038.0,031.2,026.9,0000.0,0019.12,0005.17,0004.23
2024-06-12 14:44:00,SystemResetWarning,0830.4,4.99,000.00,029.6,028.6,000.0,038.0,031.3,025.4,0000.0,0018.57,0005.18,0004.22
2024-06-12 14:45:00,SystemResetWarning,0830.5,4.99,000.00,029.7,028.8,000.0,038.0,031.4,024.9,0000.0,0018.24,0005.17,0004.23
2024-06-12 14:46:00,SystemResetWarning,0830.6,5.00,000.00,029.7,029.0,000.0,038.0,031.4,025.2,0000.0,0016.72,0005.16,0004.23
2024-06-12 14:47:00,SystemResetWarning,0830.5,5.02,000.00,029.8,029.1,000.0,038.0,031.5,026.8,0000.0,0016.04,0005.16,0004.23
2024-06-12 14:48:00,SystemResetWarning,0830.5,5.00,000.00,029.8,029.3,000.0,038.0,031.6,027.6,0000.0,0016.43,0005.13,0004.23
2024-06-12 14:49:00,SystemResetWarning,0830.5,4.99,000.00,029.9,029.4,000.0,038.1,031.7,025.2,0000.0,0016.96,0005.13,0004.23
2024-06-12 14:50:00,SystemResetWarning,0830.5,5.00,000.00,030.0,029.5,000.0,038.1,031.8,024.5,0000.0,0016.71,0005.11,0004.22
2024-06-12 14:51:00,SystemResetWarning,0830.5,5.00,000.00,030.0,029.5,000.0,038.1,031.8,024.3,0000.0,0018.96,0005.10,0004.21
2024-06-12 14:52:00,SystemResetWarning,0830.5,5.00,000.00,030.0,028.4,000.0,038.2,031.2,022.6,0000.0,0020.29,0005.17,0004.21
2024-06-12 14:53:00,SystemResetWarning,0830.5,5.00,000.00,029.6,026.5,000.0,038.3,030.3,024.6,0000.0,0020.52,0005.15,0004.21
2024-06-12 14:54:00,SystemResetWarning,0830.5,5.02,000.00,029.3,026.6,000.0,038.2,030.2,025.1,0000.0,0019.85,0005.19,0004.21
2024-06-12 14:55:00,SystemResetWarning,0830.6,4.99,000.00,029.3,027.0,000.0,038.1,030.4,021.1,0000.0,0020.25,0005.22,0004.22
2024-06-12 14:56:00,SystemResetWarning,0830.5,5.00,000.00,029.3,027.4,000.0,038.0,030.7,022.9,0000.0,0020.49,0005.18,0004.20
2024-06-12 14:57:00,SystemResetWarning,0830.6,5.00,000.00,029.4,027.8,000.0,037.9,030.9,025.2,0000.0,0020.92,0005.16,0004.18
2024-06-12 14:58:00,SystemResetWarning,0830.5,5.00,000.00,029.4,028.1,000.0,037.9,031.0,024.4,0000.0,0020.98,0005.18,0004.17
2024-06-12 14:59:00,SystemResetWarning,0830.6,5.00,000.00,029.5,028.4,000.0,037.9,031.2,024.9,0000.0,0020.71,0005.17,0004.17
